Location: Charbonni�res
(45.9952°N, 2.9982°E)
Time: 16:55:47
(UTC+00:00)

CZ-4B DEB - Pass Details

Date: 29 November 2020
Orbit: 841 x 861 km, 99.1° (Epoch: 17 January)

Event Time Altitude Azimuth Distance (km) Brightness Sun altitude
Rises 06:09:33 0° 12° (NNE) 3,408 7.3 -9.9°
Reaches altitude 10° 06:11:56 10° 10° (N) 2,470 6.5 -9.5°
Maximum altitude 06:17:22 68° 289° (WNW) 907 4.2 -8.6°
Drops below altitude 10° 06:22:46 10° 207° (SSW) 2,460 6.6 -7.7°
Sets 06:25:08 0° 205° (SSW) 3,393 7.3 -7.4°
